GFSFLT1_con_mlcape_000.txt.gz
CAPE
185 187 210 376 263 311 907 1316 1421 1529 1406 1277 862 103 0 0 0 0 0 0 0 0 0 0 0 0 0 0 0 1 7 16 0
104 155 191 255 265 340 701 1075 1229 1384 1161 1185 677 273 0 0 0 0 0 0 0 0 0 0 0 0 0 0 0 0 0 0 80
11 68 181 228 289 384 786 983 1292 1406 1129 1104 760 254 0 0 8 2 8 0 0 0 0 0 0 0 0 0 0 0 0 0 0
2 36 56 228 320 405 810 1065 1312 1473 1297 1210 894 285 0 2 92 61 8 0 0 0 0 0 13 35 11 0 0 0 31 30 77
23 1 56 122 240 311 664 990 1350 1466 1485 1350 1105 362 12 53 305 277 101 27 10 0 0 0 0 0 0 0 0 0 0 22 58
0 0 0 45 93 178 442 831 1241 1397 1518 1459 1194 557 211 172 326 324 47 29 21 6 0 0 0 0 0 0 0 0 0 4 43
0 0 0 18 90 124 328 730 1047 1324 1435 1478 1226 612 271 256 162 3 17 24 24 2 0 0 0 0 0 1 0 0 20 67 163
3 10 23 14 116 237 458 752 1022 1324 1409 1375 1099 639 381 351 78 56 15 10 1 0 4 11 6 0 0 0 0 7 147 123 48
0 24 98 64 191 473 730 893 1045 1124 1215 1250 914 578 417 311 212 165 47 50 16 12 6 59 10 13 51 57 1 79 56 38 26
0 1 3 194 709 786 1041 1196 1162 1039 1023 938 864 538 364 284 318 140 151 151 124 51 21 68 103 76 111 21 65 57 77 55 30
0 0 0 0 143 735 1151 1506 1367 903 599 718 650 431 368 323 373 202 264 239 155 130 169 211 311 293 128 175 98 112 198 104 35
0 0 0 0 36 236 458 1397 1470 876 525 579 575 358 306 384 427 480 338 319 187 246 283 343 346 307 21 93 189 54 143 63 9
0 51 68 59 166 357 663 1256 1154 931 643 473 442 313 342 336 334 371 336 298 297 375 460 512 471 332 170 86 71 90 22 32 0
183 181 128 233 321 300 610 1132 1058 913 589 597 383 347 251 239 431 426 382 356 537 591 605 362 200 125 31 56 70 32 15 0 0
1 19 319 453 502 723 1156 1132 1099 907 653 327 332 255 260 180 20 175 675 699 880 689 484 333 86 22 14 57 22 0 0 0 1
0 0 0 215 611 1023 1459 1046 712 565 235 305 215 184 207 0 0 0 0 391 820 651 223 37 26 22 89 52 1 0 0 0 0
418 434 155 432 992 933 1055 745 556 453 319 72 11 0 0 0 0 0 13 439 396 259 231 154 27 15 12 0 0 0 0 0 0
652 652 790 929 1154 986 720 454 222 31 0 0 0 0 0 0 2 22 171 62 69 126 0 0 0 0 0 0 0 0 0 0 0
907 946 839 737 599 359 58 3 0 0 0 0 0 0 0 0 46 100 100 117 0 0 0 0 0 0 0 0 0 0 0 0 0
625 718 914 862 375 60 37 2 0 0 0 0 0 0 0 27 167 225 46 11 35 0 0 0 0 0 0 0 0 0 0 0 0

GFSFLT1_con_mlcape_003.txt.gz
CAPE
144 293 375 677 772 724 700 723 1067 1302 1445 1474 1321 1445 1361 1240 263 0 0 0 0 0 0 0 0 0 0 0 0 0 0 0 0
74 183 212 595 805 763 819 848 1083 1298 1529 1637 1185 950 885 302 0 0 0 0 0 0 0 0 0 0 0 0 0 0 0 0 0
13 102 162 423 764 670 903 958 1071 1327 1538 1617 1205 658 492 65 0 0 0 1 5 0 0 0 0 0 0 0 0 0 0 0 0
7 45 110 257 507 535 707 989 1260 1263 1486 1548 1219 711 397 52 0 0 0 6 7 3 0 0 0 0 0 0 0 0 0 0 0
4 26 85 182 333 445 481 700 1030 1117 1371 1299 1103 804 523 173 0 0 0 0 0 0 0 0 0 0 0 0 0 0 0 0 0
0 5 42 130 247 376 442 631 884 1024 1355 1257 1075 804 654 266 1 43 44 18 1 0 0 0 0 0 0 0 0 0 0 0 0
3 0 0 15 166 323 410 471 864 1111 1355 1455 1238 951 816 498 36 37 233 189 48 5 4 0 0 0 0 0 0 0 0 0 1
0 7 0 0 20 128 275 384 717 1063 1355 1560 1389 1151 988 769 154 28 345 319 64 4 0 6 0 0 0 0 0 0 0 8 58
0 0 0 0 1 34 114 254 536 834 1235 1529 1426 1194 1210 665 250 20 326 152 0 0 0 2 5 6 0 0 0 2 6 33 38
0 0 6 2 7 33 107 201 468 720 1083 1446 1403 1335 906 834 516 67 163 35 15 4 1 5 3 22 28 0 0 0 3 22 9
0 4 55 179 174 194 289 459 624 769 1064 1321 1295 1161 847 590 463 241 208 56 113 76 90 45 48 28 51 53 26 8 22 31 32
55 25 10 27 76 22 145 504 890 997 1018 1141 1148 868 554 550 368 357 193 221 140 185 187 177 207 150 139 163 35 30 69 26 29
1 0 2 2 6 48 163 279 938 1122 1000 974 1040 918 718 634 266 307 197 302 194 309 276 236 300 298 191 84 108 131 9 0 0
26 86 159 151 131 86 161 395 529 892 936 1058 972 744 694 682 352 283 240 188 57 4 87 254 428 422 367 244 117 14 29 0 0
5 1 0 0 237 700 589 610 619 723 963 749 597 569 545 342 158 128 49 48 29 1 0 21 83 229 183 98 7 17 4 0 0
10 0 0 0 0 111 538 928 805 788 734 549 529 471 302 27 1 0 0 0 9 21 0 0 103 67 55 31 3 0 0 0 0
79 28 5 153 261 262 583 832 766 633 496 376 387 184 111 20 10 11 0 0 2 98 129 155 44 42 76 3 0 0 0 0 0
9 224 237 520 596 693 706 524 369 165 86 148 124 55 4 0 0 0 27 11 45 118 16 12 59 49 0 0 0 0 0 0 0
597 626 598 669 526 620 377 196 16 14 1 6 1 0 0 0 0 1 1 0 0 0 0 0 0 0 0 0 0 0 0 0 0
301 444 439 593 592 441 65 1 0 0 0 0 0 0 15 0 0 0 0 25 14 0 0 0 0 0 0 0 0 0 0 0 0

GFSFLT1_con_mlcape_006.txt.gz
CAPE
117 178 275 324 250 227 277 336 378 439 510 596 759 1175 1340 1435 1418 888 562 29 19 39 0 0 0 0 0 0 0 0 0 0 0
89 125 244 409 380 333 389 432 515 538 641 792 802 1058 1238 1136 1291 951 552 0 0 0 0 0 0 0 0 0 0 0 0 0 0
45 76 206 344 502 518 567 576 638 724 755 847 864 999 949 907 1014 861 34 0 0 0 0 0 0 0 0 0 0 0 0 0 0
0 24 100 233 555 685 735 685 686 856 863 1084 1093 951 823 636 726 312 0 0 0 0 0 0 0 0 0 0 0 0 0 0 0
0 1 72 137 474 683 785 756 760 941 1030 1133 1265 1094 779 494 423 87 0 0 0 0 0 0 0 0 0 0 0 0 0 0 0
0 1 33 82 295 548 705 737 902 1054 1228 1157 1309 1235 673 444 352 120 11 0 0 0 0 0 0 0 0 0 0 0 0 0 0
0 1 28 74 130 313 473 548 734 1047 1275 1317 1306 1035 705 596 508 282 45 0 0 0 0 0 0 0 0 0 0 0 0 0 0
0 0 3 55 126 201 343 440 515 714 1006 1234 1245 980 725 771 626 285 24 0 11 0 0 0 0 0 0 0 0 0 0 0 0
0 4 15 27 77 184 244 278 341 557 817 1016 1254 1088 855 723 470 353 233 26 1 7 21 7 2 0 0 0 0 0 0 0 0
18 38 24 40 24 44 54 100 219 403 646 948 1232 1173 992 800 447 215 19 0 11 196 177 61 1 0 0 0 1 0 3 5 4
0 1 11 21 13 2 0 5 98 238 481 780 1110 1191 1177 775 419 215 65 0 0 123 109 2 5 12 27 2 33 46 19 42 27
0 0 20 47 66 76 10 19 167 320 508 773 1034 1156 1165 906 583 332 152 32 1 3 23 28 48 59 70 64 93 113 90 18 40
0 1 48 96 107 25 4 44 270 326 476 845 975 1070 1085 932 802 428 86 2 0 0 8 23 68 91 25 55 66 108 8 19 11
0 7 47 93 141 214 297 308 335 231 367 550 850 849 865 813 767 622 87 1 1 0 26 36 45 0 1 12 4 27 23 0 5
0 0 0 0 0 0 33 125 345 429 307 608 712 675 521 442 428 309 54 26 0 0 37 36 24 15 3 0 0 0 0 2 0
0 22 48 140 79 74 136 286 557 351 552 546 470 334 252 150 40 48 5 0 0 0 0 0 1 15 0 11 2 0 0 0 0
7 40 83 246 236 209 307 428 439 469 395 378 285 147 25 0 0 0 0 0 0 0 0 0 0 32 69 47 0 2 0 0 0
296 325 303 294 259 230 443 470 411 390 335 248 204 94 38 28 0 0 0 0 0 0 0 14 22 20 30 33 8 0 0 0 0
206 389 416 390 301 348 425 416 421 343 301 330 212 62 5 0 0 0 0 0 0 0 0 0 0 0 0 0 0 0 0 0 0
0 0 11 440 353 212 319 247 236 74 124 174 36 6 0 0 0 0 0 0 0 0 0 0 0 0 0 0 0 0 0 0 0

GFSFLT1_con_mlcape_009.txt.gz
CAPE
62 78 113 165 234 321 349 420 485 556 649 727 905 1001 1154 1467 1601 1827 1581 982 625 272 435 347 0 0 0 86 5 0 0 18 32
67 123 138 171 305 367 438 479 563 633 716 777 868 1038 1253 1445 1652 1738 1450 995 733 259 310 114 24 0 16 6 0 0 3 0 0
66 129 246 354 463 462 540 628 708 804 828 887 906 1118 1332 1420 1721 1643 1637 1168 698 25 162 19 17 1 4 0 0 0 0 0 0
46 131 165 372 675 599 600 743 821 925 933 1023 1056 1102 1312 1436 1642 1443 1416 1214 683 2 59 39 7 0 0 0 0 0 0 0 0
0 82 112 487 740 755 753 826 892 975 1090 1113 1188 1160 1324 1352 1269 1037 713 732 318 4 0 12 1 0 0 0 0 0 0 0 0
0 6 86 390 679 897 939 977 1056 1103 1252 1289 1414 1526 1447 1281 865 735 914 579 182 0 0 8 9 25 1 0 1 22 83 7 0
7 16 59 252 471 766 920 1070 1129 1176 1330 1470 1563 1621 1656 1156 806 787 577 481 135 6 11 52 60 18 6 13 25 21 0 0 0
3 23 51 164 245 431 781 1073 1231 1283 1380 1527 1627 1756 1812 1337 884 766 804 254 18 0 0 20 8 0 0 0 2 0 0 0 3
14 21 71 163 244 437 576 773 863 1083 1321 1559 1772 1841 1726 1454 1177 748 475 106 10 0 0 0 0 0 6 11 9 0 0 0 60
70 74 120 175 251 412 513 602 779 805 992 1255 1553 1662 1657 1472 1239 809 432 116 15 0 0 0 0 0 2 19 46 0 0 0 30
109 191 278 242 206 317 361 426 494 615 883 1045 1254 1519 1587 1468 1204 811 468 216 68 0 0 0 0 6 4 72 110 21 8 0 73
18 74 131 190 181 127 97 139 245 482 679 835 1048 1313 1537 1581 1271 861 603 390 84 42 0 0 3 69 34 67 87 12 6 33 77
9 68 150 246 217 150 117 150 238 265 294 435 632 1333 1598 1696 1222 1037 697 421 122 72 2 0 28 11 97 158 215 43 59 21 55
179 210 382 515 386 264 274 317 414 292 481 574 1329 1602 1667 1479 1173 1066 877 352 109 41 1 0 5 71 199 134 99 134 32 14 49
24 24 4 92 58 107 204 237 296 451 524 827 1170 1302 1382 1231 1094 639 389 263 25 21 0 0 0 7 28 8 2 0 0 1 19
127 262 241 408 356 300 340 421 510 242 456 744 923 1128 1064 950 819 552 296 210 74 4 0 0 0 0 0 5 9 2 0 0 0
244 414 402 329 301 371 389 553 564 611 622 788 818 859 784 713 669 446 246 127 46 49 2 0 0 1 10 80 141 90 2 0 0
394 416 375 403 340 277 319 551 613 672 675 647 718 655 480 345 262 262 63 7 0 0 0 0 0 0 52 114 112 54 4 0 1
0 60 507 549 478 465 364 461 534 549 533 499 502 393 210 72 0 0 0 0 0 0 0 0 0 0 61 0 6 0 0 0 0
0 0 0 24 501 414 481 509 540 504 468 433 366 357 137 1 2 4 2 0 0 0 0 0 0 0 0 0 0 0 0 0 0

GFSFLT1_con_mlcape_012.txt.gz
CAPE
223 197 56 59 129 273 529 659 834 1008 1189 1776 2036 2036 2156 2420 2560 2323 1985 1861 460 247 85 98 227 744 112 86 207 270 1 2 7
126 264 87 70 106 260 446 621 896 1187 1511 1704 1866 1900 2076 2364 2533 2382 1624 1447 1565 696 246 119 368 303 137 64 275 32 1 0 31
108 229 250 67 159 253 466 651 817 1098 1363 1666 1757 1790 1944 2076 2217 2440 2202 2123 1737 779 505 346 324 310 26 101 73 12 34 0 7
81 186 382 306 165 326 572 633 718 1023 1328 1552 1744 1742 1838 1871 1929 2082 2399 2299 2082 1596 994 576 457 432 92 174 24 22 56 20 0
13 97 360 523 505 511 602 777 732 852 1053 1260 1541 1715 1981 1892 1949 1992 2089 2539 2178 1835 1049 380 571 428 216 160 66 21 66 6 0
32 119 395 600 706 838 870 850 1051 1051 1261 1244 1229 1653 1688 1667 1813 2016 2024 2244 2077 1300 750 314 176 114 85 177 134 61 47 62 30
19 268 415 656 750 984 1134 1153 1444 1558 1412 1472 1509 1519 1818 1892 1921 1919 1978 2160 1873 805 381 24 0 27 33 67 142 97 74 107 86
38 362 303 648 886 1247 1598 1573 1737 1806 1750 1740 1739 1874 1926 2190 2347 2232 1932 1945 1430 639 269 1 0 1 0 1 67 25 136 110 10
5 451 400 740 1057 1303 1698 1750 1877 1956 2028 1909 2017 2134 2204 2302 2621 2545 2017 1924 1195 412 129 0 0 0 0 0 0 0 3 3 27
22 328 426 608 912 1244 1688 1819 2000 2009 2089 2037 2101 2299 2349 2453 2666 2560 2030 1934 1178 551 255 6 0 0 0 0 0 0 0 0 6
0 447 674 816 910 1210 1487 1583 1767 1747 1919 2067 2188 2404 2471 2536 2583 2364 1920 1583 1200 860 427 5 0 0 0 0 0 0 0 0 0
154 513 931 1020 1034 1322 1422 1270 1421 1591 1629 1845 1973 2139 2356 2396 2407 2262 1980 1393 862 704 461 23 0 0 21 7 8 20 32 43 77
62 385 901 1011 794 957 1176 1101 1228 1409 1316 1522 1782 1959 2307 2438 2463 2296 1937 1608 1069 621 269 95 5 44 43 189 126 28 65 44 136
411 550 750 864 947 1020 1069 949 1016 1236 1282 1539 1709 1941 2318 2591 2620 2315 1807 1509 1101 596 268 160 213 250 311 53 18 45 16 10 95
952 1150 1179 1200 1208 1173 1208 1307 1546 1651 1726 1983 2185 2389 2451 2655 2217 1912 1592 1101 708 412 407 596 498 366 467 334 17 22 0 0 10
544 559 458 587 822 1161 1442 1565 1521 1579 1604 1662 1998 2113 2399 1746 1660 1313 1035 682 483 341 340 370 411 396 91 0 15 49 0 0 0
660 613 595 663 751 728 763 1224 1559 1672 1735 1827 1998 1651 1288 1156 1001 765 585 398 331 408 381 354 592 232 64 8 16 68 80 0 0
713 735 782 698 594 572 831 1276 1405 1571 1483 1632 1791 1423 1364 1144 797 866 720 60 257 419 314 122 334 85 1 0 6 102 200 124 118
333 830 1086 1120 920 975 1259 1504 1625 1595 1581 1720 1523 1220 1124 1008 824 812 585 186 5 0 0 0 0 0 7 6 18 13 0 0 0
0 0 58 980 1070 1278 1363 1397 1386 1312 1140 1147 1056 820 750 337 366 419 230 65 1 0 0 0 0 0 0 0 0 0 0 0 0

GFSFLT1_con_mlcape_015.txt.gz
CAPE
51 286 443 113 134 337 542 610 1119 1320 1833 2676 2972 2687 2760 2822 2805 1951 1525 1474 974 396 309 380 1090 1056 714 137 273 304 289 54 2
10 131 376 189 114 130 314 527 1036 1327 1759 2394 2759 2260 3039 3042 3016 2688 1489 1387 1647 1121 433 243 362 1105 537 200 139 342 187 19 100
1 43 335 260 122 116 283 482 815 1298 1661 2290 2309 2298 2706 2765 2894 3165 2713 2435 2221 1357 810 406 602 714 425 201 185 332 121 28 61
3 17 227 369 153 152 263 334 494 932 1293 1776 2136 2207 2301 2339 2489 2673 3036 2776 2438 2252 1291 1043 544 870 432 120 301 153 170 136 102
20 7 84 309 296 253 277 353 322 544 820 998 1737 1857 2324 2425 2487 2525 2477 2893 2813 2685 1899 1351 944 838 520 228 231 102 121 193 89
0 29 41 200 377 293 447 447 459 377 735 659 1019 1736 1977 2390 2324 2664 2441 2857 2854 2823 2485 1812 922 811 456 295 79 49 64 71 221
0 0 220 120 401 548 643 817 820 708 638 584 845 1213 1344 1850 2395 2441 2596 2772 2837 2978 2765 1879 771 841 543 244 50 15 11 4 108
0 0 68 481 635 1029 1361 1233 1411 1331 1076 1158 1066 1310 1446 1717 2295 2554 2596 2549 2874 3013 2613 1891 968 626 448 129 0 0 0 0 73
0 0 2 560 764 975 1822 1743 1980 2056 1804 1872 1719 2036 1964 2165 2689 2602 2593 2719 2904 2917 2622 1840 1079 629 200 0 0 0 0 0 11
0 0 0 60 724 1080 1573 1820 2399 2323 2516 2281 2322 2429 3054 2730 3306 3302 3338 3148 2999 2818 2581 1614 944 520 267 7 0 0 0 0 15
0 0 0 0 635 1099 1625 1866 1983 2153 2401 2752 2835 3089 2943 3250 3314 3815 3718 3331 3058 2840 2072 1312 1023 546 170 3 14 1 0 0 0
0 0 0 15 868 1107 1760 2061 2293 2480 2557 2847 3021 3146 3236 3346 3503 3504 3660 3321 2851 2461 1651 1306 920 531 103 24 225 0 0 0 0
0 110 113 154 1054 1240 1951 2223 2154 2506 2506 2656 2820 2887 3047 3150 3258 3399 3214 2930 2496 2212 1737 1128 634 366 125 40 112 109 0 0 11
13 252 206 1166 1384 1754 2325 2128 1990 2454 2374 2412 2292 2228 2443 2775 2975 3081 3017 2710 2171 1775 1562 1098 676 376 263 334 442 478 17 0 0
651 623 859 1431 1593 1841 2053 1997 2200 2368 2063 2022 2122 2295 2540 2884 3111 2900 2671 2320 1986 1551 998 679 511 357 362 608 724 465 11 0 2
1433 1480 1348 1425 1649 1811 1705 1788 1880 2069 2655 2564 2577 2679 2882 3131 2931 2356 2093 1927 1475 1184 743 577 438 463 642 759 539 538 0 1 0
1222 1448 1529 1579 1670 1791 2135 2287 2512 3033 2796 2776 2801 3019 2701 2290 1777 1458 1366 1335 1027 786 703 623 659 835 727 505 369 0 75 1 0
782 756 796 1001 1294 1620 1930 2206 2176 2267 2460 2636 2604 1871 1420 1272 1048 1082 675 265 416 579 223 301 492 540 659 518 351 118 87 16 44
961 810 803 817 1068 1464 1883 2072 2152 2233 2400 2243 1970 1683 1472 1287 1132 603 360 185 43 0 0 0 0 0 65 0 0 0 0 0 0
20 476 802 883 1058 1326 1638 1758 1831 1938 2111 2029 2021 1711 1571 1221 1130 826 808 661 504 222 0 0 0 0 0 0 0 0 0 0 0

GFSFLT1_con_mlcape_021.txt.gz
CAPE
125 80 29 5 51 200 484 621 1113 1641 1689 1592 1849 1842 1812 1493 1545 1688 1186 1286 1014 776 749 670 787 732 467 339 0 483 212 167 83
12 0 229 115 64 138 419 589 1147 1354 2126 1908 1984 2189 2120 1784 1668 1978 2062 1401 1729 834 254 469 698 813 485 305 49 129 338 191 38
29 2 128 270 94 140 403 580 993 1409 2158 2121 2155 1896 2295 2180 1914 1744 2043 2214 1301 1577 710 989 791 781 614 418 143 27 359 235 101
27 1 49 335 245 232 490 681 942 1369 1977 2272 2380 2322 2054 2447 2395 2208 1893 2193 1867 1348 1342 596 803 890 737 487 367 194 294 271 55
5 0 131 348 418 394 709 756 830 1308 2104 2345 2500 2602 2467 2216 2590 2637 2133 1758 2114 1638 1272 1274 952 882 857 621 292 256 381 276 93
1 12 195 457 397 616 820 876 850 1262 1913 2393 2698 2797 2776 2678 2428 2690 2443 2006 1910 2282 1652 1458 1212 1093 844 696 495 245 285 265 156
11 10 6 400 471 543 825 1029 1089 1110 1588 2292 2613 2912 2832 2714 2691 2585 2623 2766 2165 2158 2690 1906 1386 1106 871 665 497 395 343 299 227
14 0 47 282 509 437 729 866 1023 1206 1419 1635 2451 2702 2843 2639 2697 2802 2840 2830 3046 2445 2472 2578 1915 1351 936 708 447 434 348 272 234
17 0 261 299 603 514 462 615 813 1066 1378 1568 1753 2507 2611 2701 2574 2731 2708 2819 2813 3142 2618 2717 2370 1746 1327 1006 692 505 421 342 275
2 9 108 346 420 718 573 636 748 952 1190 1486 1626 1851 2466 2547 2530 2573 2618 2674 2760 2952 3106 3006 2911 2394 1711 1355 1034 692 462 401 298
0 0 97 307 270 604 1164 838 813 931 1109 1366 1475 1505 1995 2287 2391 2410 2579 2723 2846 2834 3126 3123 3149 2880 2239 1704 1223 855 484 358 260
0 0 0 25 502 451 866 1540 1130 949 1026 1206 1262 1316 1441 1930 2130 2324 2482 2708 2774 2980 2960 3194 3275 2980 2455 1982 1297 764 422 194 103
81 1 0 0 10 178 740 1047 1759 1469 1152 1125 1197 1232 1505 1743 1939 2184 2500 2777 2891 3025 3172 3302 3224 2813 2346 1843 1303 556 264 30 2
119 252 4 0 0 0 283 774 1655 1948 1628 1368 1476 1618 1705 2104 2249 2444 2830 2955 3108 3337 3261 3003 2808 2463 1768 1391 1023 566 284 33 7
8 306 679 110 0 0 22 748 1596 2100 2487 2092 1853 2805 2589 3352 3416 3682 3718 3559 3505 3153 2765 2752 2259 1796 1253 877 665 548 236 103 44
1740 1609 1980 1645 790 757 1259 1636 2099 2322 2968 3462 3229 2925 3490 3884 4090 4221 3878 3705 2960 2348 2621 2067 1625 1389 1111 790 574 447 193 21 0
2290 2531 2752 2949 2960 3149 3461 3367 3264 3345 3490 3532 3616 3635 3666 3463 3468 3304 3068 2655 2255 2047 1684 1551 1279 1115 889 687 549 475 264 81 1
2047 2428 2834 3049 3166 3223 3401 3599 3714 3604 3562 3533 3392 3265 3028 2742 2415 2075 1584 850 1038 1399 968 1083 1028 839 714 604 591 545 257 102 8
1211 1856 1745 2093 3011 3243 3433 3452 3273 3145 3100 2963 2845 2474 1873 1627 1656 1301 984 782 358 0 43 230 498 615 648 217 315 263 53 0 0
295 560 1468 1790 1796 2475 2912 2850 2886 2806 2631 2329 2052 1711 1509 1437 1211 1038 871 690 602 472 0 0 1 15 90 37 0 3 0 0 0

GFSFLT1_con_mlcape_024.txt.gz
CAPE
0 0 0 3 6 65 69 153 487 756 745 722 993 1065 1163 1097 1071 945 734 1011 985 1029 965 973 705 1065 768 482 108 36 22 6 8
0 0 0 0 53 102 129 231 567 810 871 838 1038 1040 990 1151 1264 1123 1085 1184 1124 1192 1026 740 794 840 685 368 117 54 56 48 31
3 3 1 13 0 85 181 198 665 893 1059 936 1069 1284 1225 1153 1126 1398 1420 1438 1337 1078 802 709 622 638 429 264 147 111 100 89 59
40 66 60 21 15 59 128 257 754 1088 1275 1199 1362 1482 1468 1485 1383 1190 1388 1464 1598 1209 866 615 487 526 405 289 204 83 90 71 148
73 130 42 91 97 37 102 369 790 1092 1575 1445 1530 1709 1713 1652 1666 1616 1372 1292 1618 1727 1333 671 447 503 585 454 292 183 21 42 129
0 1 2 50 168 29 115 356 642 1079 1600 1714 1811 1850 1833 2006 2011 1915 1576 1270 1440 1693 1767 1152 861 669 640 583 420 362 195 81 28
4 13 14 17 103 96 242 413 606 1057 1344 1939 2000 2126 1880 1816 2061 2177 1963 1695 1495 1562 1759 1544 1206 1005 843 659 464 366 428 289 96
34 15 4 5 148 222 434 580 656 941 1429 1940 2090 2256 2254 1996 1943 2176 2339 2111 1933 1737 1866 1780 1478 1252 1085 848 623 463 376 357 190
0 10 23 0 148 316 401 664 746 829 1306 2015 2264 2345 2325 2348 2296 2225 2255 2370 2325 2083 1849 2097 1723 1484 1311 1031 752 600 491 448 289
0 0 0 3 158 251 539 779 864 871 1179 1921 2327 2318 2534 2524 2501 2473 2448 2442 2496 2540 2259 2048 2014 1780 1645 1334 1049 718 541 447 320
0 0 0 182 342 498 729 815 931 1068 1105 1547 2148 2268 2467 2630 2544 2464 2561 2611 2565 2567 2747 2452 2302 1997 1782 1727 1472 1063 651 517 372
0 0 0 1 396 491 510 618 746 964 1203 1434 1718 2050 2274 2486 2508 2431 2517 2497 2517 2591 2733 2821 2699 2577 2184 1952 1764 1432 965 575 426
0 0 0 0 194 799 852 590 666 793 983 1306 1518 1767 1812 2268 2428 2400 2348 2463 2472 2577 2644 2790 2844 2820 2465 2287 2300 1482 1079 856 570
4 0 0 8 0 113 396 972 827 753 806 935 1269 1540 1732 1896 2350 2335 2332 2396 2541 2575 2621 2745 2813 2687 2359 2207 2105 1495 880 614 496
68 3 0 62 44 0 3 275 1029 768 827 858 1055 1277 1425 1469 1888 2193 2230 2317 2537 2564 2665 2559 2318 2102 1789 1764 1347 941 440 422 326
1854 1456 1402 1243 137 8 0 84 753 837 1072 1041 1001 1155 1151 1444 1644 1884 2190 2409 2607 2612 2416 2154 1787 1641 1211 1713 1008 670 459 276 127
1848 2271 2490 2416 1618 857 230 271 330 984 1063 1211 1320 1442 1533 2003 2196 2392 2614 2650 2541 2326 2139 1957 1628 1419 1743 1156 813 593 247 81 0
1981 2335 2608 2775 2901 2669 2631 2507 1247 1760 2113 1869 2198 2411 2708 2975 2755 2555 1851 1049 1299 1525 1119 1427 1433 1401 1034 757 604 356 182 82 25
1292 1571 1547 1353 1009 1094 1456 1536 2041 2856 2785 2620 2368 2311 2200 1955 1508 1068 613 353 256 2 129 15 762 735 755 337 416 287 249 39 3
549 734 934 1153 889 409 546 0 1 734 2058 2280 2381 2116 1736 1095 739 834 494 232 201 95 0 1 155 282 279 318 230 133 46 0 0

GFSFLT1_con_mlcape_027.txt.gz
CAPE
0 0 7 22 25 26 55 108 318 471 513 674 853 817 810 850 902 771 700 678 725 488 816 1044 1083 1048 994 608 202 80 0 0 0
0 0 0 1 15 12 39 47 156 383 427 578 951 939 863 833 871 832 740 778 734 424 734 997 880 1115 948 666 202 90 28 0 0
0 0 0 0 2 9 12 33 72 325 458 454 683 973 961 848 832 872 879 801 774 641 810 917 761 995 800 607 376 117 74 30 0
0 0 0 0 16 18 20 26 32 236 493 537 568 825 941 980 932 993 945 896 816 714 960 852 852 854 634 585 460 202 102 38 2
0 0 0 0 19 27 37 64 51 259 538 612 626 787 834 819 877 1058 1118 1036 978 848 1047 814 799 755 632 471 375 162 146 86 9
0 0 0 0 0 0 6 47 91 389 590 714 766 869 959 975 962 935 957 1129 1282 1094 1140 1042 741 709 643 444 291 220 162 157 102
0 0 0 5 0 0 2 32 112 431 731 902 938 1076 1125 1134 1161 1151 1091 1063 1163 1238 1131 1070 1009 774 733 501 312 266 252 194 138
0 0 0 0 0 0 0 17 144 439 824 1133 1114 1227 1392 1327 1307 1316 1344 1273 1248 1254 1280 1158 1148 1130 822 556 489 453 393 324 268
0 0 0 0 0 45 70 99 141 382 824 1322 1369 1372 1461 1593 1562 1570 1573 1571 1474 1373 1312 1325 1090 1137 1228 1017 788 555 406 471 434
0 0 0 0 0 18 36 91 218 383 716 1129 1611 1565 1637 1674 1603 1632 1802 1933 1832 1649 1534 1511 1242 1097 1110 1084 1077 843 679 486 479
0 0 0 0 0 30 153 147 320 460 751 1170 1579 1704 1876 1969 1835 1733 1763 1880 1977 1953 1775 1654 1746 1416 1208 1171 1195 1089 805 688 503
0 0 0 0 0 0 79 208 434 670 789 1157 1650 1733 1887 2024 2062 1977 1976 1912 1930 2080 2118 1894 1799 1664 1397 1283 1248 1072 986 868 642
0 0 0 0 0 33 175 397 695 802 800 1078 1500 1790 1884 2070 2155 2142 2104 2053 2088 2168 2238 2289 2092 1957 1704 1568 1568 1292 1167 933 825
0 0 0 0 0 42 191 460 724 850 905 927 1213 1675 1983 2152 2315 2280 2200 2210 2211 2261 2278 2392 2470 2258 2139 1876 1913 1663 1309 1063 1284
0 8 58 176 0 0 146 439 598 812 930 1039 1135 1345 1607 1918 2092 2353 2341 2267 2371 2393 2466 2561 2661 2620 2465 2097 1854 1414 811 788 1093
591 738 1109 1533 1307 1295 732 0 664 556 773 940 1027 1191 1309 1423 1721 2208 2313 2273 2307 2332 2421 2519 2565 2510 2167 1741 1410 1055 1146 486 724
1419 1897 1717 2000 1894 1826 1866 2034 1582 440 893 714 718 927 1150 1284 1327 1812 2122 2186 2299 2434 2564 2569 2287 1900 1577 1498 1133 852 265 365 350
1644 1781 1604 1682 1813 1726 1590 1245 1553 1453 1367 1474 1038 845 883 1025 1152 1454 1694 1235 1973 2495 2411 2351 1873 1574 1034 856 650 613 365 473 218
981 1313 1286 1205 950 841 523 7 0 26 342 877 1159 1461 1023 1188 1133 888 695 885 869 791 1193 920 693 587 201 28 76 347 212 296 67
263 235 134 6 6 272 312 225 31 0 0 0 4 158 529 723 561 578 876 793 662 560 5 3 0 0 3 135 0 82 74 62 5

GFSFLT1_con_mlcape_030.txt.gz
CAPE
2 14 85 137 153 87 32 113 137 158 209 274 310 287 253 348 454 455 437 427 439 451 362 479 729 927 1043 922 564 265 124 67 1
0 0 0 7 53 75 76 45 100 178 244 263 319 368 333 307 444 499 483 474 518 518 564 635 543 786 1054 972 684 347 102 43 0
0 0 0 0 0 0 20 33 70 162 291 295 355 423 448 427 507 585 578 514 568 589 604 740 546 918 955 932 723 463 149 59 16
0 0 0 0 0 4 9 24 14 79 254 350 419 643 647 637 627 677 650 566 610 640 670 745 481 805 920 852 818 493 283 116 54
0 0 0 0 0 1 7 9 24 35 186 305 369 638 782 774 704 728 682 617 661 681 714 689 552 654 895 816 808 598 475 325 123
0 0 0 0 0 0 0 0 1 25 97 288 375 512 775 866 821 747 731 702 743 744 771 714 621 836 843 877 762 561 521 453 258
0 0 0 0 0 0 0 0 1 3 80 248 415 474 637 779 867 831 810 856 854 796 836 760 613 755 870 879 748 574 476 429 375
0 0 0 0 0 0 0 0 7 26 111 248 446 538 615 711 795 817 832 897 995 1032 989 901 779 622 905 890 806 653 537 372 363
0 0 0 0 0 0 0 0 20 88 192 384 587 620 646 812 937 902 879 871 866 975 1076 1133 943 804 787 967 862 746 573 479 378
0 0 0 0 0 0 0 3 56 128 299 593 697 718 780 931 1058 1104 1116 1137 1069 986 1020 1125 1115 1034 854 791 993 745 618 557 509
0 0 0 0 0 0 0 0 53 205 323 633 784 858 970 1184 1285 1254 1334 1358 1278 1204 1165 1135 1240 1194 1148 1002 1014 836 766 713 734
0 0 0 0 0 0 0 0 49 178 350 651 1015 1165 1247 1342 1479 1473 1517 1520 1517 1530 1411 1306 1317 1313 1242 1242 1202 833 806 727 732
0 0 0 0 0 0 0 2 79 160 337 608 872 1327 1405 1534 1552 1503 1484 1570 1706 1816 1794 1676 1580 1586 1479 1344 1408 957 753 704 872
0 0 0 0 0 0 0 0 57 206 362 595 866 1274 1617 1759 1782 1721 1607 1652 1716 1801 1983 1999 1845 1772 1726 1510 1515 1384 851 657 903
0 0 42 69 0 0 0 7 308 458 559 697 943 1343 1579 1765 1891 1967 2018 1990 1974 1963 2002 2089 2146 2106 1943 1672 1655 1450 917 866 1137
780 845 929 1063 712 987 1301 0 157 476 408 643 838 1002 1403 1733 1981 2200 2254 2305 2195 2129 2199 2271 2275 2211 2239 2108 1920 1139 944 684 776
1489 1754 2019 1853 1468 1325 1470 1594 1419 1217 1121 1007 660 686 959 1262 1763 2093 2347 2347 2272 2223 2235 1749 2207 2317 2238 2229 1383 893 434 260 164
894 674 472 457 372 152 1 0 0 0 134 790 1171 999 660 811 1189 1532 2060 2000 1920 2293 2264 2288 2381 2377 2225 1728 870 259 165 15 4
196 127 28 230 220 188 60 0 0 0 0 0 514 1066 1047 845 962 1067 1159 1227 978 750 1606 1855 1831 1378 951 376 154 7 0 0 0
125 151 134 90 160 217 326 447 284 46 0 3 3 1 835 1114 840 719 792 947 986 935 267 844 691 387 253 29 0 0 0 0 0

GFSFLT1_con_mlcape_036.txt.gz
CAPE
30 504 744 708 914 1065 1079 835 973 1036 1359 1727 1932 1839 1904 2046 2117 1571 1493 1585 1382 1387 1035 998 1057 1533 1849 2151 2166 2401 2421 2087 1621
0 248 588 780 845 1001 1217 1295 1319 1312 1499 1764 1888 1817 2029 2044 2112 1871 1379 1438 1878 1531 1561 1225 1323 1478 2093 2149 2097 2408 2364 1851 1544
0 0 346 505 802 978 1129 1364 1451 1595 1649 1555 1490 1682 1874 1911 1981 2150 1975 2002 1907 1772 1666 1689 1338 1672 1935 2070 2113 2353 2324 1825 1618
0 0 105 394 463 650 860 1114 1393 1509 1722 1766 1775 1748 1817 1798 1834 1935 2104 2047 2101 2126 1907 2046 1900 1860 1872 1765 1938 2225 2371 1992 1570
0 0 0 46 130 318 637 920 1034 1107 1342 1596 1627 1737 2000 1829 1826 1877 1832 2062 2108 2312 2094 2168 2173 2120 2093 1965 1819 2094 2409 2176 1559
0 0 0 4 31 43 262 678 1008 979 1101 1258 1404 1685 1731 1711 1702 1772 1861 2167 2131 2229 2291 2361 2013 2241 2366 2140 1917 2036 2383 2215 2003
0 0 0 0 0 0 2 233 711 1122 930 1033 1186 1338 1562 1751 1885 1826 1937 2137 2232 2312 2383 2396 2261 2358 2520 2374 2134 1945 2022 2214 2042
0 0 0 0 0 3 277 295 632 1233 1058 949 1045 1421 1484 1778 2038 2199 2131 2152 2301 2392 2477 2442 2466 2445 2502 2610 2206 1738 2013 2202 1997
0 0 0 0 0 51 332 468 815 931 1192 991 1032 1441 1675 1802 2149 2340 2293 2342 2452 2504 2492 2515 2568 2547 2599 2435 2241 1618 1270 2089 2032
0 0 0 0 0 0 17 242 527 745 1093 1123 1197 1371 1783 1944 2254 2419 2514 2564 2592 2576 2545 2573 2565 2556 2614 2509 2521 1696 1114 1189 1837
0 0 0 0 0 0 0 0 0 162 671 1341 1330 1563 1792 2016 2212 2419 2656 2709 2568 2637 2750 2635 2704 2678 2702 2686 2693 2105 1265 1037 1581
0 0 0 0 0 0 0 0 0 0 382 1041 1424 1592 1753 2068 2174 2217 2433 2764 2794 2722 2628 2693 2727 2653 2899 2847 2721 2089 1543 1172 1479
0 0 0 0 0 0 0 0 1 157 346 804 1502 1628 1851 2087 2211 2289 2366 2715 2805 2755 2644 2631 2552 2585 2903 2977 2914 2343 1567 1316 1576
0 0 0 0 0 0 0 0 128 29 370 764 1355 1683 1770 2107 2348 2479 2534 2773 2787 2675 2598 2396 2652 2785 2884 2984 2965 2953 1647 1187 1655
101 4 0 0 14 0 49 737 714 596 823 1133 1621 1757 1932 2269 2527 2366 2302 2721 2913 2827 2762 2802 2872 2741 2591 2743 2939 2642 1770 1365 1232
450 3 0 509 84 226 548 1227 1016 1016 1520 1753 1968 2097 2355 2583 2759 2707 2506 2771 2850 2849 2882 2523 2773 2792 2625 2688 2692 3091 2267 1184 1166
393 818 1580 1691 1921 1368 1666 2033 2047 2025 2359 2233 2198 2331 2657 2877 3077 3008 2903 2835 2968 2833 2810 2806 2589 2697 2657 2549 2751 3083 2940 1589 603
1345 2209 2305 2490 2423 2037 2060 2248 2481 2529 2436 2289 2497 2668 2739 2847 2809 2852 3120 3028 2881 2859 2820 2658 2808 2759 2916 2576 2779 3014 3011 1718 524
2080 1820 1337 1088 885 732 502 560 807 1068 1949 2693 2389 2300 2165 2109 2145 2529 2676 2822 2995 2332 1999 1627 1591 1535 1714 2552 2198 1961 1835 1215 853
1515 1604 1608 1090 870 1013 1197 969 944 894 1077 1106 1226 1498 1763 1942 1378 1448 1674 2161 2438 2618 2168 1755 1413 1398 1665 1916 1500 1321 1100 649 227

GFSFLT1_con_mlcape_039.txt.gz
CAPE
55 94 607 869 982 917 756 578 799 887 1654 2500 2793 2631 2603 2592 2318 1694 1428 1421 1050 1026 808 636 1044 2304 2120 2169 2272 2304 2489 2233 2108
11 20 469 746 913 1041 1081 818 1005 1150 1600 2403 2841 2723 2800 2875 2809 2302 1623 1631 1849 1875 1509 943 1292 1705 2171 2133 2166 2285 2453 1849 2316
0 1 284 742 839 1054 1276 1155 1044 1341 1671 2451 2872 2705 2892 2967 3048 2954 2328 2202 2197 1895 1914 1893 1860 1631 1726 2176 2257 2350 2461 1855 2058
0 0 143 638 871 987 1279 1371 1341 1435 1692 2247 2759 2914 2882 2839 2950 2870 2989 2545 2556 2454 2440 2719 1924 2258 2016 2344 2446 2433 2487 2103 1882
0 0 15 458 589 911 1036 1308 1514 1639 1790 1746 2448 2446 2838 2854 2890 2824 2914 2949 2701 2830 2789 2681 2947 2774 2500 2603 2476 2520 2630 2439 1459
0 0 0 84 377 672 710 931 1400 1547 1845 1902 1948 2294 2425 2819 2794 2873 2707 2937 3029 3009 2983 2997 2853 2830 2941 2819 2601 2441 2762 2767 2432
0 0 0 1 66 178 309 559 1134 1469 1493 1678 1820 2038 2211 2459 2830 2706 2740 2774 3150 3039 3203 3153 2950 2930 3093 3083 3044 2758 2711 2776 2841
0 0 0 0 0 5 153 463 1175 1713 1327 1447 1491 1983 2229 2442 2828 3018 2987 2871 2993 3097 3216 3299 3237 3085 3136 3476 3256 2701 2741 2551 2892
0 0 0 0 0 0 78 254 557 1105 1824 1555 1489 1965 2111 2347 2739 3048 3118 3159 3083 3289 3140 3291 3341 3359 3224 3320 3402 2602 2184 2623 2752
0 0 0 0 0 0 5 278 742 886 1442 1753 1668 1752 2388 2334 2673 2984 3256 3366 3389 3302 3399 3440 3371 3415 3426 3342 3471 2691 1957 1826 2544
0 0 0 0 0 0 5 10 0 623 880 1873 1959 2239 2088 2591 2623 3059 3265 3438 3506 3592 3599 3517 3551 3558 3550 3543 3566 3122 2092 1656 1974
0 0 0 0 0 0 0 0 0 2 274 1231 2183 2165 2489 2382 2993 3066 3491 3517 3518 3657 3678 3694 3651 3712 3676 3633 3627 3219 2631 1775 1915
12 11 2 0 0 0 0 0 0 0 0 56 1644 2285 2650 2841 2998 3265 3492 3661 3816 3835 3756 3682 3637 3556 3708 3705 3745 3502 2802 2301 2257
32 123 265 151 85 0 13 4 0 25 140 240 757 2008 2555 3009 3171 3457 3441 3548 3850 3947 3821 3316 3606 3571 3629 3698 3645 3896 2997 2400 2631
37 86 371 379 149 1 113 208 104 388 744 908 1409 1756 2385 2659 3142 3191 3094 3595 3805 4051 3885 3700 3596 3656 3620 3727 3770 3506 3264 2436 2363
1 331 892 691 89 72 450 496 927 1423 1780 2377 2133 2323 2722 2908 3300 3481 3170 3516 3869 3777 3775 3335 3452 3236 3568 3535 3549 3863 3326 2448 2317
1 541 1071 1063 1247 1210 1461 1763 1903 2125 2234 2671 2558 2761 3081 3199 3464 3515 3415 3267 3349 3335 3179 3242 3023 3081 3096 3025 3136 3106 3391 2790 1989
12 657 1537 2149 2283 2552 2362 2809 2906 2913 3067 3009 2819 3019 3038 3177 3225 3339 3545 3336 3115 3172 3182 2790 3154 3086 2858 2956 3002 3015 2859 2957 3148
197 1220 2161 2140 2043 2226 1867 2140 2493 2977 3333 2905 2995 3033 3072 3032 3003 3368 3322 3471 3407 2542 2490 1703 1492 1304 1978 2487 1850 1634 1648 1839 2339
1228 1866 1806 1783 1792 1707 1868 1599 1606 1723 1902 2446 2990 2822 2774 2293 2298 2307 2738 2649 2697 2817 1631 737 863 891 621 488 932 1326 1525 1670 1591

GFSFLT1_con_mlcape_042.txt.gz
CAPE
84 365 718 962 1219 1082 803 697 874 1261 2004 2191 2414 2230 2399 1764 1843 2104 718 1237 1117 466 1047 1223 1980 1521 2181 1915 2141 1865 2451 2466 2067
63 159 406 723 1284 1234 993 760 868 1051 1581 2258 2473 2329 2518 2577 1564 2374 1695 859 1601 1629 917 1557 1341 1813 2067 2061 2413 1974 2521 2292 2550
41 80 272 859 1179 1325 1182 897 855 1072 1495 2059 2474 2619 2517 2729 2601 2043 2050 1540 1707 1380 2039 1111 1985 2293 2135 2501 2498 2532 2577 2658 2152
0 115 265 662 1159 1372 1376 1148 981 1095 1322 2141 2638 2843 2937 2820 2879 2623 2246 1991 2012 2302 1769 2559 1507 2714 2601 2498 2441 2505 2776 2229 2318
0 12 318 557 999 1276 1539 1456 1248 1236 1445 1741 2598 3122 3116 2937 2896 3148 2831 2257 2182 2440 2678 2170 2807 2312 2328 2372 2249 2727 2516 2595 1836
0 0 228 638 850 1118 1506 1670 1638 1496 1527 1643 2435 2963 3271 3253 3132 3148 3180 3005 2509 2557 2466 2946 2383 3055 2790 2372 2583 2547 2883 2645 2401
0 9 26 502 667 1068 1332 1646 1803 1837 1799 1769 1889 2652 3055 3185 3350 3315 3329 3279 3293 2757 2929 2626 2901 2811 2907 3082 2823 2809 2738 2882 2950
0 23 57 384 523 1128 1289 1490 1871 1988 2008 2126 2101 2025 2719 2843 3069 3358 3277 3312 3384 3535 3148 3209 2969 3067 3189 3051 3173 3061 2871 2768 2921
0 0 0 0 0 34 147 1674 1840 1972 2044 2268 2218 2373 2410 2692 2857 3014 3339 3236 3251 3326 3601 3443 3537 3347 3111 3240 3253 3157 2819 2819 2883
0 0 0 0 0 0 58 261 1178 2125 2000 1888 2191 2296 2615 2705 2908 3131 3299 3405 3333 3306 3454 3602 3564 3618 3477 3100 3354 3081 2802 2603 2872
0 0 0 0 0 0 0 0 43 642 1932 2220 1882 2243 2101 2732 3045 3129 3380 3504 3496 3562 3513 3671 3614 3695 3690 3476 3370 3156 2818 2583 2680
0 0 0 0 0 0 0 3 234 644 852 1858 2329 2042 2501 2232 3021 3039 3381 3612 3606 3660 3753 3702 3882 3780 3771 3736 3650 3311 2968 2632 2613
89 211 324 431 396 262 99 208 48 850 954 1540 1834 1829 1830 2872 2459 3168 3345 3634 3841 3894 3864 3923 3855 3856 3826 3822 3747 3620 3109 2762 2954
28 155 243 344 450 427 247 37 56 46 416 483 1667 2309 2465 2448 3137 2832 3408 3570 3957 4005 3978 4004 3993 3956 3982 3939 3883 3845 3371 2791 3231
0 3 122 796 749 666 484 113 209 507 192 771 631 624 2458 3051 3250 3277 3252 3739 4026 4128 4146 4054 3981 4018 4030 4118 4061 3944 3758 3017 2903
0 0 44 562 1575 711 522 414 843 735 695 1437 1495 1835 2443 2819 3407 3691 3380 3700 3937 4165 4234 4163 4100 3966 3995 3983 3904 4146 3669 3285 2897
0 0 70 329 1457 2178 2068 1913 1974 1998 2083 2209 2915 2524 2960 3324 3393 3738 3850 3589 3925 3950 3964 4177 4115 4077 3950 3711 3893 3936 3627 3344 2671
0 23 111 726 2122 3043 3348 3095 3211 3250 3237 3016 3415 3477 3580 3821 3659 3764 3994 3696 3673 3867 3861 3793 3964 3833 3387 3478 3632 3152 2262 2738 3004
0 0 309 1549 2271 2082 2645 2341 3076 3226 3456 3585 3570 3558 3578 3526 3369 3626 3636 3995 3343 1083 1590 1546 1375 1291 2161 2094 1404 1170 1384 1752 1884
0 0 155 1140 2271 2228 2212 2031 1989 2161 2522 3147 3544 3807 3421 3327 3200 3422 3765 3797 3826 3357 571 2 205 218 55 32 55 42 300 472 751

GFSFLT1_con_mlcape_045.txt.gz
CAPE
357 191 476 593 427 448 371 419 643 937 857 778 814 1194 973 703 1616 954 653 483 323 28 649 982 1201 1460 2089 1690 1440 1390 1499 1599 1778
313 214 625 657 532 528 393 513 721 831 1103 942 1103 1213 1348 941 772 1909 969 353 653 1028 452 1065 1259 1369 1824 1912 1600 1294 1423 2065 1685
300 489 818 824 696 624 508 492 729 921 1224 1206 1179 1322 1526 1441 956 813 1974 1041 395 611 1258 458 1470 1656 1728 1667 1683 1495 1324 1785 2214
22 458 876 1098 957 822 655 508 744 932 1182 1572 1592 1598 1531 1876 1772 1323 1080 1920 926 513 1222 1622 750 1380 1813 1762 1821 1803 1587 1511 2094
0 246 761 1223 1177 1066 882 667 701 856 1085 1621 1839 1928 1951 1829 2186 2193 1420 1327 1887 637 1128 1216 1927 1994 1896 2130 1974 1871 1992 1913 2109
0 91 570 1158 1283 1225 1138 869 714 821 921 1402 1804 2132 2144 2184 2110 2370 2204 1672 1325 1892 977 1573 1420 1984 2369 2092 2098 2100 2129 1994 1910
0 45 558 1005 1342 1308 1357 1103 885 827 927 1144 1887 2092 2312 2368 2438 2415 2448 2453 2077 1326 1919 1654 1912 1678 2013 2436 2247 2128 2115 2077 1944
0 4 427 1030 1260 1373 1492 1350 1124 1014 993 1202 1376 2234 2442 2487 2670 2600 2584 2587 2783 2525 1812 2112 2007 2127 2135 2373 2415 2311 2117 2184 2243
35 137 392 683 965 1250 1533 1601 1407 1278 1195 1248 1385 1840 2329 2708 2869 2941 2777 2857 2792 2918 2888 2309 2499 2346 2290 2418 2692 2592 2349 2310 2347
0 0 0 5 11 886 1475 1670 1740 1670 1603 1497 1499 1614 1867 2548 2854 2970 3024 3046 3136 3063 3104 3176 2742 2729 2642 2543 2654 2642 2583 2498 2589
0 0 0 0 0 0 0 1301 1862 1788 1884 1969 1897 1800 1870 1924 2650 2836 2958 3055 3108 3143 3172 3250 3388 3193 3068 2969 2878 2664 2489 2592 2821
158 163 197 202 186 75 16 0 0 1867 2183 2165 2329 2320 2355 2283 2449 2694 2915 2946 3093 3170 3184 3182 3255 3455 3396 3315 3224 2928 2621 2536 2738
75 149 209 406 289 215 68 15 1 726 1311 1970 2255 2391 2583 2720 2715 2850 2886 3074 3140 3286 3289 3269 3288 3338 3466 3402 3390 3315 2867 2665 2926
0 10 86 369 564 800 814 238 66 30 484 1448 2163 2046 1995 2348 2555 2767 3011 3081 3354 3430 3471 3480 3506 3489 3511 3622 3569 3562 3184 2815 3109
0 0 0 236 386 640 1198 1257 164 0 54 209 548 1798 2306 2095 2330 2366 2878 3057 3361 3598 3630 3639 3584 3660 3744 3719 3777 3637 3446 3067 3006
0 0 0 19 439 1159 1556 2052 1156 251 507 1317 1580 548 1818 2259 2258 2426 2474 2818 3215 3658 3798 3847 3834 3843 3891 3911 3866 3909 3698 3316 3034
0 0 0 2 456 1431 2857 3152 2966 2683 2676 2368 1577 1643 2156 2368 2914 3087 3045 3127 3277 3576 3959 4012 4036 4006 3933 3748 3743 3796 3738 3415 2782
0 0 0 0 33 802 2085 2456 3026 3149 3096 3108 3402 2396 2940 3102 2763 3315 3482 3120 2852 3717 3837 3937 3969 3923 3752 3675 3680 3308 2181 2620 3254
0 0 0 0 0 301 2009 2024 2012 2044 2132 2679 3062 3768 3518 3878 3679 3600 3638 3133 1768 334 1180 1593 2084 2282 3395 1327 988 689 904 962 1309
0 0 0 0 0 0 890 2134 1859 1784 1663 1972 2644 2894 3737 3435 3470 3446 3633 3817 3378 2307 133 5 8 162 277 214 43 111 183 240 280

GFSFLT1_con_mlcape_048.txt.gz
CAPE
399 147 241 293 233 138 92 236 327 210 217 329 546 453 427 504 457 425 272 282 251 46 137 341 429 758 1077 1514 1488 1207 1173 1278 1155
572 310 140 367 308 228 188 234 442 438 318 288 551 585 583 654 585 521 457 421 195 99 80 328 488 826 1251 1455 1556 1386 1283 1322 1507
620 405 465 373 323 358 247 259 414 583 553 420 462 770 644 558 738 1038 725 511 447 373 126 350 513 840 1255 1486 1471 1529 1218 1197 1441
415 491 646 325 459 436 320 317 493 666 716 655 666 661 863 794 640 537 1274 1075 474 354 535 590 734 979 1175 1386 1490 1526 1414 1117 1327
246 437 512 358 591 499 440 387 516 626 864 825 773 838 936 1085 1060 832 566 1118 1344 810 469 406 834 1023 1267 1486 1604 1624 1555 1256 1280
18 395 489 417 706 621 546 395 517 700 816 998 959 1013 1062 1121 1293 1277 1040 681 985 1393 1011 712 606 1275 1547 1312 1426 1732 1672 1483 1374
0 154 393 589 828 734 654 503 504 729 866 1160 1227 1285 1321 1228 1386 1642 1594 1384 968 1030 1302 889 757 835 1434 1849 1931 1739 1721 1700 1595
0 139 741 902 974 899 847 653 536 718 927 1078 1493 1563 1620 1592 1530 1597 1930 1887 1670 1334 1143 1329 1137 766 1361 1800 1932 2153 2016 1851 1683
0 228 932 1182 1103 1057 1052 882 699 680 835 1069 1369 1638 1707 1766 1874 1819 1800 1959 2018 1869 1638 1219 1345 1370 1386 1432 1867 2089 2025 2152 2018
2 155 791 1244 1156 1131 1156 1087 879 756 828 885 1268 1580 1675 1927 1976 2101 2086 2132 2185 2277 2157 2037 1407 1474 1591 1491 1777 1956 2009 2069 2224
136 140 254 433 871 1047 1240 1238 1044 899 828 901 1068 1252 1764 1961 2303 2291 2434 2478 2419 2400 2521 2569 2403 2031 1998 2062 1947 1894 1909 2023 2269
118 219 162 107 97 465 904 1268 1431 1250 1155 1138 1118 1234 1278 1908 2180 2480 2582 2715 2780 2724 2818 2801 2845 2898 2703 2448 2546 2328 2058 1953 2244
0 75 200 350 526 399 138 98 944 1670 1624 1574 1493 1390 1455 1497 1854 2375 2537 2693 2749 2928 2945 2957 2992 3014 3145 3120 2933 2730 2417 2211 2457
0 1 190 447 737 843 1008 680 34 627 1711 2054 1990 1983 1761 1745 1726 1861 2274 2532 2715 2780 2930 2981 2968 2980 2993 3079 3192 3163 2658 2455 2860
0 0 84 524 1351 1879 2142 1421 229 1 64 403 983 2119 2164 2364 2396 2257 2382 2501 2585 2779 2853 2998 3030 3037 3109 3105 3114 3113 2801 2661 2683
0 0 0 3 748 1628 2506 2892 1638 1283 2217 2022 1902 769 942 2195 2463 2594 2741 2733 2720 2831 3022 3114 3189 3248 3252 3284 3322 3352 3159 2905 2767
0 0 0 0 21 844 1686 2384 2669 2789 2742 2735 2760 2150 1449 1757 1790 2149 2489 2721 2782 2887 3044 3155 3286 3382 3431 3436 3495 3602 3596 3096 2647
0 0 0 0 0 0 579 1708 1840 1594 1399 1754 2538 2823 3107 2307 1880 1988 2170 1985 2110 2910 3071 3076 3213 3439 3570 3601 3614 3519 3406 3391 3155
0 0 0 0 0 0 0 829 1696 1661 1402 1119 1009 1893 2691 3169 3406 3154 2779 1849 1270 119 673 1538 2862 3510 3661 2363 2290 2345 2017 1892 1819
0 0 0 0 0 0 0 21 1529 1512 1350 1196 988 917 1972 1974 2887 3710 3446 2457 2297 2240 310 83 535 1307 1966 1687 1332 863 1083 919 582